Anchialos, Greece

3:03 AM EET on January 22, 2018 (GMT +0200)
Almiros Air Base

Weather History for LGBL - September, 2013

Change the Weather History Date:

Wednesday, September 18, 2013

  Actual Average Record
Temperature  
Mean Temperature 78 °F -  
Max Temperature 87 °F - - ()
Min Temperature 69 °F - - ()
Cooling Degree Days 13    
Growing Degree Days 28 (Base 50)    
Moisture  
Dew Point 51 °F    
Average Humidity 41    
Maximum Humidity 60    
Minimum Humidity 22    
Precipitation  
Precipitation 0.00 in - - ()
Sea Level Pressure  
Sea Level Pressure 29.61 in    
Wind  
Wind Speed 8 mph ()    
Max Wind Speed 14 mph    
Max Gust Speed -    
Visibility 6.2 miles    
Events      
T = Trace of Precipitation, MM = Missing Value Source: Averaged Metar Reports

Daily Weather History Graph

Daily Weather History Graph

Search for Another Location

Airport or City:

Trip Planner

Search our weather history database for the weather conditions in past years. The results will help you decide how hot, cold, wet, or windy it might be!

Date:

Astronomy

Sep. 18, 2013 Rise Set
Actual Time 7:12 AM EEST 7:32 PM EEST
Civil Twilight 6:45 AM EEST 7:59 PM EEST
Nautical Twilight 6:14 AM EEST 8:30 PM EEST
Astronomical Twilight 5:42 AM EEST 9:02 PM EEST
Moon 6:44 PM EEST (9/18) 5:54 AM EEST (9/18)
Length of Visible Light 13h 13m
Length of Day
12h 19m
Waxing Gibbous, 98% of the Moon is Illuminated
Sep 18
Waxing Gibbous
Sep 19
Full
Sep 27
Last Quarter
Oct 5
New
Oct 12
First Quarter

Hourly Weather History & Observations

Time (EEST) Temp. Dew Point Humidity Pressure Visibility Wind Dir Wind Speed Gust Speed Precip Events Conditions
12:50 AM 71.6 °F 51.8 °F 50% 29.62 in 6.2 mi West 9.2 mph - N/A   Mostly Cloudy
1:50 AM 71.6 °F 53.6 °F 53% 29.62 in 6.2 mi NW 5.8 mph - N/A   Scattered Clouds
2:50 AM 71.6 °F 53.6 °F 53% 29.59 in 6.2 mi West 6.9 mph - N/A   Scattered Clouds
3:50 AM 71.6 °F 53.6 °F 53% 29.59 in 6.2 mi West 6.9 mph - N/A   Scattered Clouds
4:50 AM 71.6 °F 53.6 °F 53% 29.59 in - West 8.1 mph - N/A   Clear
5:50 AM 69.8 °F 55.4 °F 60% 29.59 in 6.2 mi West 8.1 mph - N/A   Scattered Clouds
6:20 AM 71.6 °F 55.4 °F 57% 29.59 in 6.2 mi West 8.1 mph - N/A   Mostly Cloudy
6:50 AM 69.8 °F 55.4 °F 60% 29.62 in 6.2 mi NW 5.8 mph - N/A   Mostly Cloudy
7:20 AM 69.8 °F 55.4 °F 60% 29.62 in 6.2 mi NW 5.8 mph - N/A   Mostly Cloudy
7:50 AM 69.8 °F 55.4 °F 60% 29.62 in 6.2 mi West 5.8 mph - N/A   Mostly Cloudy
8:20 AM 71.6 °F 57.2 °F 60% 29.62 in 6.2 mi NW 4.6 mph - N/A   Scattered Clouds
8:50 AM 75.2 °F 57.2 °F 53% 29.62 in 6.2 mi WNW 8.1 mph - N/A   Partly Cloudy
9:20 AM 78.8 °F 55.4 °F 44% 29.62 in 6.2 mi West 9.2 mph - N/A   Partly Cloudy
9:50 AM 78.8 °F 53.6 °F 42% 29.62 in 6.2 mi West 8.1 mph - N/A   Scattered Clouds
10:20 AM 80.6 °F 51.8 °F 37% 29.62 in 6.2 mi West 11.5 mph - N/A   Partly Cloudy
10:50 AM 82.4 °F 50.0 °F 32% 29.62 in 6.2 mi WNW 8.1 mph - N/A   Partly Cloudy
11:20 AM 82.4 °F 50.0 °F 32% 29.62 in 6.2 mi WNW 8.1 mph - N/A   Partly Cloudy
11:50 AM 82.4 °F 50.0 °F 32% 29.62 in 6.2 mi WNW 8.1 mph - N/A   Scattered Clouds
12:20 PM 84.2 °F 50.0 °F 30% 29.62 in 6.2 mi WNW 8.1 mph - N/A   Scattered Clouds
12:50 PM 82.4 °F 48.2 °F 30% 29.62 in 6.2 mi WNW 11.5 mph - N/A   Scattered Clouds
1:20 PM 84.2 °F 46.4 °F 27% 29.62 in 6.2 mi WNW 12.7 mph - N/A   Scattered Clouds
1:50 PM 86.0 °F 44.6 °F 23% 29.62 in 6.2 mi NW 11.5 mph - N/A   Scattered Clouds
2:20 PM 87.8 °F 44.6 °F 22% 29.62 in 6.2 mi WNW 13.8 mph - N/A   Scattered Clouds
2:50 PM 87.8 °F 46.4 °F 24% 29.62 in 6.2 mi WNW 12.7 mph - N/A   Scattered Clouds
3:20 PM 87.8 °F 46.4 °F 24% 29.59 in 6.2 mi WNW 11.5 mph - N/A   Scattered Clouds
3:50 PM 86.0 °F 46.4 °F 25% 29.59 in 6.2 mi West 12.7 mph - N/A   Scattered Clouds
4:20 PM 87.8 °F 44.6 °F 22% 29.59 in 6.2 mi WNW 10.4 mph - N/A   Scattered Clouds
4:50 PM 87.8 °F 44.6 °F 22% 29.59 in 6.2 mi West 12.7 mph - N/A   Scattered Clouds
5:20 PM 87.8 °F 46.4 °F 24% 29.59 in 6.2 mi West 12.7 mph - N/A   Scattered Clouds
5:50 PM 87.8 °F 46.4 °F 24% 29.59 in 6.2 mi West 12.7 mph - N/A   Partly Cloudy
6:20 PM 86.0 °F 46.4 °F 25% 29.59 in 6.2 mi WSW 11.5 mph - N/A   Partly Cloudy
6:50 PM 84.2 °F 46.4 °F 27% 29.59 in 6.2 mi WSW 11.5 mph - N/A   Partly Cloudy
7:20 PM 82.4 °F 48.2 °F 30% 29.59 in 6.2 mi West 9.2 mph - N/A   Partly Cloudy
7:50 PM 78.8 °F 59.0 °F 51% 29.59 in 6.2 mi West 8.1 mph - N/A   Partly Cloudy
8:20 PM 78.8 °F 51.8 °F 39% 29.62 in 6.2 mi West 8.1 mph - N/A   Partly Cloudy
8:50 PM 75.2 °F 59.0 °F 57% 29.62 in 6.2 mi NNW 6.9 mph - N/A   Partly Cloudy
9:50 PM 71.6 °F 55.4 °F 57% 29.65 in 6.2 mi NNW 3.5 mph - N/A   Partly Cloudy
10:50 PM 71.6 °F 57.2 °F 60% 29.65 in 6.2 mi WNW 5.8 mph - N/A   Partly Cloudy
11:50 PM 69.8 °F 51.8 °F 53% 29.68 in 6.2 mi WNW 4.6 mph - N/A   Partly Cloudy